Wind_Speed
22 22 23 22 23 23 24 23 20 13 12 20 23 22 24 26 26 27 24 24 34 38 34 31 29 28 29 28 25 24 22 20 18 20 17 17 16 18
23 23 23 24 25 25 25 26 26 24 14 23 23 23 24 25 26 28 31 30 31 30 33 33 33 32 30 28 27 26 25 23 21 20 19 19 19 18
24 26 26 26 27 27 27 27 28 27 17 29 26 24 24 24 25 25 28 31 29 28 29 33 31 30 31 29 29 27 28 26 23 20 19 18 19 18
28 27 29 28 29 28 28 28 28 29 26 22 31 26 22 22 24 25 26 27 32 31 30 31 35 32 29 29 31 30 29 27 26 24 21 18 18 17
30 29 30 28 29 28 28 28 29 28 26 24 26 30 23 23 23 24 25 26 29 32 30 27 31 34 31 28 27 28 29 30 28 25 23 21 21 20
30 30 31 30 30 30 29 29 29 30 30 29 25 27 23 22 21 20 22 23 24 27 25 26 27 27 27 29 30 27 27 27 28 26 24 22 21 20
32 31 31 31 32 33 31 31 31 30 30 27 24 23 22 21 19 19 20 22 21 23 23 25 24 25 30 27 22 22 21 22 25 25 24 22 20 20
33 32 31 31 32 32 32 34 33 33 31 30 26 21 23 24 24 22 22 18 8 21 21 23 19 20 21 21 21 20 21 16 14 20 23 23 22 22
32 34 33 29 29 30 32 33 34 35 37 37 32 27 28 27 25 25 24 23 21 23 21 21 19 20 21 20 22 22 23 25 21 19 19 22 24 25
31 32 33 32 30 30 30 31 31 32 31 27 28 28 27 27 25 26 25 25 25 25 22 17 21 20 18 19 21 22 23 24 23 21 21 22 22 24
30 30 31 31 31 31 32 31 31 30 28 29 32 34 33 33 30 27 24 19 16 21 21 21 22 19 17 18 21 23 21 15 11 12 17 21 22 22
30 30 30 31 32 32 33 29 29 28 24 25 26 29 28 28 28 26 26 21 17 12 20 18 18 16 4 8 7 11 15 12 13 10 10 13 16 20
30 31 30 31 33 33 31 30 30 31 29 28 26 26 27 23 24 25 26 26 23 21 20 13 11 8 6 5 14 14 17 13 17 15 14 12 10 10
32 32 31 32 35 35 36 36 34 32 29 26 22 22 23 25 24 25 26 24 24 26 25 17 15 14 12 8 7 13 18 18 17 16 16 14 15 11
32 35 37 34 33 33 30 29 28 26 23 22 21 22 23 25 26 22 23 20 19 20 20 21 20 16 16 13 10 15 17 14 19 19 14 16 16 15
31 32 31 34 33 33 31 27 26 24 23 23 21 23 23 22 21 22 20 18 15 17 22 21 21 21 16 20 18 19 17 12 10 18 22 20 18 20
33 26 25 24 23 23 22 24 24 22 20 21 20 20 20 20 19 21 20 14 14 14 16 19 23 21 20 18 17 19 16 20 19 18 17 21 23 20
23 21 21 21 21 22 22 23 19 18 20 20 19 19 18 18 17 18 19 15 15 16 17 15 12 10 14 19 25 23 21 21 19 19 20 20 20 19
20 20 20 21 22 22 22 22 21 19 20 20 19 18 17 15 15 15 14 15 14 16 18 16 15 13 8 11 13 15 22 18 16 15 15 17 20 20
20 21 21 22 22 22 22 22 22 21 19 17 18 17 17 15 14 15 15 14 15 18 17 17 19 18 11 11 6 18 16 20 18 16 13 16 22 24
21 21 22 22 22 23 23 23 22 21 22 20 18 18 18 17 15 16 16 17 19 18 15 17 24 22 22 21 12 20 21 22 28 29 20 17 16 14
23 23 24 24 25 24 25 24 22 21 21 19 18 18 18 19 17 15 15 14 15 15 12 17 18 18 21 16 13 17 19 19 18 18 24 25 14 3
24 25 26 26 27 27 25 25 25 22 20 20 20 19 18 17 17 17 15 14 15 14 14 14 17 18 18 18 19 16 19 21 18 16 19 21 21 26
Wind_Direction
297 294 289 286 281 280 278 279 283 293 288 294 294 294 295 294 293 293 299 305 300 297 300 297 296 295 290 287 282 280 282 281 274 266 258 263 260 259
294 293 292 289 287 284 280 278 277 278 287 287 290 290 291 291 290 288 291 294 292 288 293 291 294 291 289 282 281 275 271 273 274 266 259 250 253 252
291 289 287 287 286 284 281 279 277 274 273 282 281 283 284 286 286 286 284 287 290 289 285 288 286 286 285 280 274 273 269 267 268 269 262 258 254 252
288 288 287 288 285 284 283 278 275 271 266 271 281 280 279 281 284 283 282 279 286 291 289 282 283 284 277 280 275 268 269 268 265 266 263 252 251 251
288 287 287 288 286 284 282 281 279 276 268 268 274 279 280 280 279 279 277 277 280 287 290 285 278 281 281 279 277 272 265 264 264 263 263 259 258 257
291 289 288 285 282 281 280 282 284 281 271 267 265 271 275 276 275 280 281 277 278 283 292 291 294 289 288 284 274 275 269 262 259 256 255 259 260 258
291 289 287 285 285 285 283 282 278 276 277 276 268 272 275 277 274 278 278 281 279 283 286 287 288 285 282 281 285 271 270 261 256 251 249 251 249 256
292 292 290 290 289 285 284 284 279 278 273 267 269 265 269 271 274 274 276 280 277 275 281 287 293 295 294 294 290 285 286 279 272 254 250 246 253 259
292 291 292 289 288 288 288 284 282 280 277 271 265 263 270 273 275 275 272 271 270 272 281 277 282 284 289 289 292 292 286 281 275 265 256 256 256 259
292 291 289 289 288 288 289 287 286 281 280 273 272 271 268 271 269 270 273 274 274 270 268 273 276 274 279 285 292 287 280 278 276 270 257 257 259 262
294 291 290 289 289 288 288 286 287 286 283 277 270 268 267 267 270 272 271 267 263 265 265 256 270 269 276 287 286 289 282 267 282 285 267 257 257 260
294 290 289 289 289 290 288 288 288 288 281 284 279 275 269 266 266 265 261 257 253 265 258 254 267 265 266 277 282 302 321 310 306 301 288 265 257 257
296 294 289 291 293 291 289 284 282 286 285 279 277 275 274 266 263 263 265 257 242 243 247 253 249 241 246 268 287 296 298 310 317 311 301 299 285 256
307 306 305 305 297 292 290 286 284 285 281 280 273 269 268 268 258 259 266 270 267 259 256 243 247 232 244 267 271 283 285 300 303 310 302 288 293 299
306 304 304 303 299 296 292 297 284 281 276 269 266 266 263 263 266 268 269 269 273 258 254 258 243 241 240 248 265 272 289 291 290 291 309 306 295 297
300 298 298 302 294 294 287 282 275 270 266 266 266 268 268 263 261 264 262 265 269 262 248 237 250 245 237 252 262 267 270 266 279 279 297 298 296 288
319 317 316 312 313 312 300 297 269 266 264 266 265 263 262 259 253 256 256 256 257 256 258 249 239 242 255 260 253 262 270 269 278 277 283 285 294 284
329 321 317 317 315 317 315 316 295 279 269 267 265 265 263 259 251 246 249 242 252 256 250 244 224 236 268 265 251 262 268 262 263 273 280 277 281 282
327 323 320 318 316 313 312 313 309 303 294 277 276 268 267 269 268 261 246 237 230 249 257 236 230 232 251 260 252 252 255 255 263 263 265 270 274 279
330 326 323 322 319 316 312 309 307 306 303 294 280 270 261 259 258 251 241 240 231 232 231 229 228 224 232 247 262 271 268 266 247 252 274 284 281 283
330 327 327 325 322 321 318 314 306 301 300 293 288 273 256 251 252 247 242 239 246 237 222 222 227 240 247 253 261 265 266 257 258 261 266 264 277 276
333 332 331 329 326 325 325 322 310 303 301 291 293 281 267 254 243 249 244 247 254 259 234 237 241 236 239 235 254 261 267 268 261 251 254 253 243 242
336 336 334 336 335 334 327 323 322 309 299 296 293 290 276 259 243 245 247 254 253 249 247 242 233 233 234 235 246 251 257 258 252 252 266 258 248 250
Height
825 822 819 815 813 810 807 804 800 791 787 788 787 786 783 781 778 775 772 771 768 765 764 761 759 756 754 753 753 752 751 751 751 750 750 751 753 753
820 816 813 810 807 804 801 798 796 791 781 783 782 781 779 776 774 771 768 766 765 763 758 755 753 750 750 749 747 747 747 747 748 748 748 746 748 751
814 811 807 804 801 798 796 792 789 787 781 773 775 774 772 770 768 766 763 760 757 756 754 750 748 746 743 742 742 741 741 742 742 742 742 743 744 745
807 805 801 799 795 792 789 785 783 779 776 771 766 765 765 764 762 760 758 756 752 749 747 745 741 739 738 736 734 734 734 734 735 736 736 738 740 740
801 798 794 792 788 786 784 780 776 772 768 765 760 758 759 758 756 754 751 750 747 742 740 737 735 732 731 730 728 727 727 727 728 730 730 731 733 734
795 792 788 785 782 779 777 773 770 766 762 758 755 751 752 751 750 748 745 744 741 738 735 732 730 727 725 724 723 722 721 721 722 723 724 725 726 728
787 784 781 778 775 773 771 766 764 761 757 752 748 747 746 745 745 744 740 737 735 734 730 728 725 722 721 720 717 716 715 714 716 717 719 720 722 723
780 776 773 770 767 764 762 758 757 753 749 747 743 740 739 739 739 737 735 733 730 729 727 723 722 719 717 716 714 712 711 711 711 711 713 714 716 718
774 769 764 762 759 756 752 749 746 744 741 738 735 734 734 732 732 730 728 727 725 723 723 719 717 714 713 712 710 709 709 707 707 707 707 709 710 711
767 763 759 754 752 749 744 741 738 735 732 731 729 727 726 725 725 723 722 720 718 716 717 714 711 710 709 708 706 706 704 704 703 702 701 702 703 703
761 757 753 747 745 742 738 733 729 725 724 723 722 720 719 718 718 717 716 715 711 709 710 709 706 705 705 704 703 701 701 699 698 696 695 696 696 697
754 749 745 740 736 734 730 727 723 719 717 715 714 712 710 709 709 708 708 707 706 703 702 704 702 702 701 700 699 699 698 697 695 693 692 690 691 691
745 740 736 733 729 725 722 719 716 713 710 708 706 705 703 701 701 700 699 697 697 696 696 699 698 698 699 697 697 697 696 694 692 691 689 688 687 687
740 735 729 725 721 717 714 710 707 704 702 700 698 696 696 695 693 692 692 692 691 690 692 693 693 695 695 694 695 694 693 692 690 687 686 685 686 683
736 729 723 718 713 709 705 701 698 696 693 691 689 688 688 687 686 686 686 686 685 686 686 689 689 690 691 690 690 690 690 686 686 685 684 683 680 679
728 720 716 711 706 701 696 692 690 688 686 684 682 681 681 680 680 680 680 681 681 680 681 682 685 685 685 686 686 684 685 686 683 683 682 680 680 679
722 716 711 706 701 695 691 687 682 682 680 678 677 676 675 674 674 675 675 676 677 676 676 676 678 680 680 681 680 678 680 679 679 679 678 676 674 675
720 715 710 705 700 694 689 684 679 676 675 673 672 670 669 669 669 669 670 672 673 672 672 673 674 676 677 675 676 674 674 674 673 675 675 672 669 669
721 715 709 704 698 693 687 683 678 674 671 668 667 666 665 665 665 665 665 666 667 668 668 669 670 672 672 668 669 669 668 668 669 669 669 668 665 664
720 715 709 703 697 691 685 680 675 671 668 665 663 661 660 660 660 659 660 661 661 661 662 664 665 665 665 663 663 663 665 665 664 663 664 663 661 659
719 713 708 701 695 689 683 677 672 667 664 661 658 656 655 655 654 654 654 654 654 654 654 656 655 657 657 659 659 656 656 658 658 658 658 659 658 655
719 713 706 700 693 687 681 674 668 663 659 656 654 651 650 649 648 648 648 649 648 647 646 649 651 652 653 653 652 651 651 651 651 651 652 653 654 650
718 712 705 699 692 685 678 672 666 660 655 652 649 646 644 643 642 643 643 644 644 643 644 644 645 646 646 647 646 646 645 645 646 646 644 644 645 646